Weather in Uralets

Russia / Sverdlovsk Oblast     57°39′39″N   59°38′55″E
temp.,
°C
wind,
m/s
gust,
m/s
humid.,
%
clouds,
%
prec.,
mm/h
press.,
hPa
HPBL,
m
15 may, sat
sat1523:00+17wsw26582 0.0 102299
02:00+15sw27675 0.0 1021120
05:00+15sw26685 0.0 102197
08:00+20sw310500 0.0 1020318
11:00+26wsw61133100 0.0 10181676
14:00+28w693294 0.0 10181919
17:00+26w51033100 0.0 10182579
20:00+24w4104898 0.0 1018556
16 may, sun
sun1623:00+20wsw31363100 0.1 1018437
02:00+19wsw4155893 0.0 1018485
05:00+18wsw41560100 0.0 1018459
08:00+21wsw51351100 0.0 1018517
11:00+26w61031100 0.0 10181263
14:00+29w6102216 0.0 10182621
17:00+29w68225 0.0 10172917
20:00+25wsw410374 0.0 1017579
17 may, mon
mon1723:00+20sw413505 0.0 1017357
02:00+19wsw414542 0.0 1017370
05:00+16sw3106224 0.0 1017223
08:00+21wsw51250100 0.1 1017537
11:00+25wsw61036100 0.1 10161683
14:00+27w7113099 0.0 10162746
17:00+27w6123118 0.0 10153148
20:00+24wsw5104272 0.0 1015919
18 may, tue
tue1823:00+18wsw22615 0.1 101645
02:00+16wsw2266100 0.0 101618
05:00+14wsw2272100 0.0 101726
08:00+19w3758100 0.0 1016388
11:00+24wnw610394 0.0 10152377
14:00+24nw711305 0.0 10152542
17:00+23nnw683410 0.0 10162386
20:00+18ne575846 0.0 1019816
19 may, wed
wed1923:00+13ne277810 0.0 1022247
02:00+10ene24900 0.0 1023115
05:00+8ne279713 0.0 1025248
08:00+12e357460 0.0 1025701
11:00+17e335213 0.0 10241196
14:00+20ese33416 0.0 10231552
17:00+22se333856 0.0 10221600
20:00+19ese25514 0.0 1022121